This is the latest recevied weather packets stored in our database for station/object WX5HOT. If no packets are shown the sender has not sent any weather packets the latest 10 day(s).
| Time | Temp. | Humidity | Pressure | Rain* | Wind** | Luminosity | Snow |
|---|---|---|---|---|---|---|---|
| 1777479999 | 15° C | 84% | 1066.5 hPa | 0 mm | - | 437 W/m² | - |
| 1777479696 | 15° C | 87% | 1066.6 hPa | 0 mm | - | 440 W/m² | - |
| 1777479395 | 15° C | 85% | 1066.6 hPa | 0 mm | - | 577 W/m² | - |
| 1777479090 | 14.44° C | 85% | 1066.3 hPa | 0 mm | - | 456 W/m² | - |
| 1777478787 | 14.44° C | 87% | 1066.6 hPa | 0 mm | - | 453 W/m² | - |
| 1777478484 | 14.44° C | 87% | 1066.6 hPa | 0 mm | - | 453 W/m² | - |
| 1777478181 | 14.44° C | 86% | 1066.8 hPa | 0 mm | - | 433 W/m² | - |
| 1777477877 | 13.89° C | 89% | 1067.1 hPa | 0 mm | - | 466 W/m² | - |
| 1777477572 | 13.89° C | 88% | 1066.6 hPa | 0 mm | - | 351 W/m² | - |
| 1777477269 | 13.89° C | 89% | 1066.6 hPa | 0 mm | - | 361 W/m² | - |
| 1777476965 | 13.89° C | 88% | 1066.8 hPa | 0 mm | - | 348 W/m² | - |
| 1777476664 | 13.89° C | 89% | 1066.9 hPa | 0 mm | - | 329 W/m² | - |
| 1777476360 | 13.89° C | 90% | 1066.9 hPa | 0 mm | - | 335 W/m² | - |
| 1777476056 | 13.89° C | 89% | 1067 hPa | 0 mm | - | 319 W/m² | - |
| 1777475751 | 13.89° C | 89% | 1067 hPa | 0 mm | - | 297 W/m² | - |
| 1777475449 | 13.89° C | 90% | 1066.9 hPa | 0 mm | - | 366 W/m² | - |
| 1777475143 | 13.89° C | 90% | 1066.9 hPa | 0 mm | - | 334 W/m² | - |
| 1777474841 | 13.33° C | 90% | 1067.1 hPa | 0 mm | - | 276 W/m² | - |
| 1777474536 | 13.89° C | 89% | 1067.2 hPa | 0 mm | - | 253 W/m² | - |
| 1777474233 | 13.33° C | 91% | 1067 hPa | 0 mm | - | 263 W/m² | - |
| 1777473931 | 13.33° C | 89% | 1067 hPa | 0 mm | - | 296 W/m² | - |
| 1777473628 | 13.89° C | 88% | 1066.9 hPa | 0 mm | - | 307 W/m² | - |
| 1777473324 | 13.89° C | 87% | 1067.1 hPa | 0 mm | - | 370 W/m² | - |
| 1777473020 | 13.89° C | 88% | 1067 hPa | 0 mm | - | 331 W/m² | - |
| 1777472716 | 13.89° C | 88% | 1066.7 hPa | 0 mm | - | 354 W/m² | - |
* Rain latest hour (hover to see other rain measurements)
** Current wind speed in m/s (hover to see current wind gust speed)